DIAMANT R/B, 1805

Orbit data source: Space-Track

DIAMANT R/B, 1805 is space debris in LEO originally from a launch on Fri, 26 Nov 1965 UTC launched from the Hamma Guira Space Track Range (HGSTR). Debris objects in space refer to the collection of defunct objects orbiting the Earth. Examples of debris include non-operational satellites, rocket bodies, and fragments generated from explosions, collisions, or faulty payload assembly.

Loading next visibility...
Identifier
1805, 1965-096B
Orbit
LEO
Country
Flag of FRFR
Related business
Manufacturer
Sud
Mission
Spacecraft
Bus & Motor
RUBIS, Unknown motor
Mass
65 kg wet, 65 kg dry
Launch date (UTC)
1965-11-26 (60 years ago)
Launch vehicle
Unknown
Launch site
Hamma Guira Space Track Range (HGSTR)
Object type
Payload
Rocket body
Debris
Shape & HBR
Unknown
Radar Cross Section
Large (>1 m²)

Expand to show TLE details & history
Last TLE update: 12 hours ago

TLE from 12 hours ago
0 DIAMANT R/B
1 01805U 65096B   26106.62375483  .00000490  00000-0  10292-3 0  9993
2 01805  34.2489 314.8713 0583676 341.3164  16.6868 13.87816289996158
Epoch: 2026-04-16T14:58Z
TLE epoch observation values (Epoch: 2026-04-16T14:58:12.417Z)
Latitude
0.00001°
Longitude
-114.44906°
Altitude
528.573 km
Speed
7.809 km/s
True Right ascension
20h 59m 29s
True Declination
0° 00' 00"
Sunlit
Object was in daylight at epoch
Visualization orbit readout
Latitude
Unknown
Longitude
Unknown
Altitude
Unknown
Speed
Unknown
Apparent Right ascension
Unknown
Apparent Declination
Unknown
Sunlit
N/A
Visualization observer readout
Local Sidereal Time
09:45:15
Azimuth
Unknown
Elevation
Unknown
Doppler factor
Unknown
Orbital elements
Apogee altitude
1,366.587 km
Perigee altitude
512.364 km
Semi-major axis
7,317.613 km
Eccentricity
0.05837
Inclination
34.2489°
RAAN
314.8713°
Arg. of periapsis
341.3164°
True anomaly
18.75069°
Mean anomaly
16.6868°
Eccentric anomaly
17.70376°
Mean motion
3.46728 °/min
Orbital period
103.83 mins
BSTAR
0.00010292
Loading maneuver chart data...
Computing Atmospheric mass density...
Loading historical data...
Loading historical data...
Loading historical data...
Loading historical data...
Loading historical data...
Loading historical data...
Loading historical data...
Other satellites on launch #96 in the year 1965 (1965-11-26 UTC)

Documentation

Showing up to 5 results
|